CW2071 Weather Reports


time (UTC)temp
C
wind
direction
speed
KPH
gust
KPH
rain 1hr
cm
rain 24hr
cm
rain mn
cm
humidity
%
barometer
mb
20260504205030 22 14 14.5 30.6 0.00 0.00 0.00 33 1004.5
20260504204528 22 18 14.5 29.0 0.00 0.00 0.00 32 1004.3
20260504204026 22 330 12.9 29.0 0.00 0.00 0.00 34 1004.3
20260504203543 22 6 12.9 24.1 0.00 0.00 0.00 32 1004.4
20260504203035 22 316 11.3 29.0 0.00 0.00 0.00 33 1004.5
20260504202554 22 329 9.7 29.0 0.00 0.00 0.00 32 1004.3
20260504202031 22 343 11.3 29.0 0.00 0.00 0.00 32 1004.4
20260504201526 22 311 11.3 29.0 0.00 0.00 0.00 32 1004.3
20260504201043 22 16 11.3 24.1 0.00 0.00 0.00 31 1004.3
20260504200541 22 328 12.9 25.7 0.00 0.00 0.00 32 1004.2
20260504200039 22 331 11.3 30.6 0.00 0.00 0.00 31 1004.3
20260504195536 22 63 11.3 30.6 0.00 0.00 0.00 32 1004.4
20260504195054 23 329 12.9 25.7 0.00 0.00 0.00 31 1004.2
20260504194525 23 342 9.7 32.2 0.00 0.00 0.00 31 1004.2
20260504194044 22 315 8.0 32.2 0.00 0.00 0.00 32 1004.3
20260504193519 22 337 9.7 25.7 0.00 0.00 0.00 32 1004.5
20260504193037 22 110 11.3 33.8 0.00 0.00 0.00 31 1004.3
20260504192536 22 54 11.3 37.0 0.00 0.00 0.00 31 1004.2
20260504192033 22 11 16.1 37.0 0.00 0.00 0.00 30 1004.2
20260504191528 23 8 9.7 27.4 0.00 0.00 0.00 33 1004.1
20260504191027 22 291 11.3 27.4 0.00 0.00 0.00 31 1004.1
20260504190523 22 297 9.7 33.8 0.00 0.00 0.00 33 1004.1
20260504190040 22 201 8.0 33.8 0.00 0.00 0.00 36 1004.1
20260504185514 22 32 16.1 29.0 0.00 0.00 0.00 36 1003.9
20260504185036 22 61 8.0 33.8 0.00 0.00 0.00 36 1003.9
20260504184555 22 331 11.3 33.8 0.00 0.00 0.00 36 1003.9
20260504184029 22 8 12.9 25.7 0.00 0.00 0.00 37 1003.9
20260504183526 22 351 9.7 29.0 0.00 0.00 0.00 37 1003.9
20260504183024 22 312 9.7 29.0 0.00 0.00 0.00 37 1003.7
20260504182521 22 342 9.7 27.4 0.00 0.00 0.00 40 1003.6
20260504182039 22 93 9.7 27.4 0.00 0.00 0.00 40 1003.7
20260504181514 22 339 9.7 25.7 0.00 0.00 0.00 38 1003.7
20260504181015 22 311 12.9 25.7 0.00 0.00 0.00 39 1003.8
20260504180517 22 291 12.9 22.5 0.00 0.00 0.00 42 1003.7
20260504180038 22 317 8.0 32.2 0.00 0.00 0.00 41 1003.7
20260504175535 22 347 14.5 32.2 0.00 0.00 0.00 41 1003.8
20260504175037 22 241 11.3 30.6 0.00 0.00 0.00 42 1003.7
20260504174529 22 296 12.9 29.0 0.00 0.00 0.00 41 1003.8
20260504174026 22 70 12.9 33.8 0.00 0.00 0.00 41 1003.9
20260504173523 23 35 8.0 33.8 0.00 0.00 0.00 41 1003.7
20260504173041 23 327 11.3 29.0 0.00 0.00 0.00 43 1003.7
20260504172514 22 284 9.7 22.5 0.00 0.00 0.00 40 1003.7
20260504172034 22 314 9.7 29.0 0.00 0.00 0.00 41 1003.7
20260504171530 22 18 12.9 30.6 0.00 0.00 0.00 41 1003.5
20260504171026 22 341 9.7 30.6 0.00 0.00 0.00 40 1003.5
20260504170520 23 344 12.9 30.6 0.00 0.00 0.00 40 1003.5
20260504151038 21 210 11.3 17.7 0.00 0.00 0.00 41 1002.7
20260504150540 21 281 11.3 17.7 0.00 0.00 0.00 42 1002.7
20260504141022 17 276 8.0 16.1 0.00 0.00 0.00 53 1002.7
20260504140513 16 283 9.7 16.1 0.00 0.00 0.00 56 1002.7
20260504130514 11 223 1.6 6.4 0.00 0.00 0.00 70 1003.3
20260504110526 8 51 3.2 8.0 0.00 0.00 0.00 75 1003.1
20260504100529 8 295 1.6 1.6 0.00 0.00 0.00 78 1003.0
20260504081533 10 344 3.2 3.2 0.00 0.00 0.00 75 1003.6
20260504081026 10 314 1.6 3.2 0.00 0.00 0.00 69 1003.6
20260504080520 10 1 1.6 3.2 0.00 0.00 0.00 72 1003.7
20260504050559 12 331 0.0 3.2 0.00 0.00 0.00 65 1006.4
20260504045525 12 241 0.0 3.2 0.00 0.00 0.00 65 1006.5
20260504045020 12 223 0.0 3.2 0.00 0.00 0.00 65 1006.5
20260504044518 12 161 0.0 3.2 0.00 0.00 0.00 64 1006.5
20260504044037 12 178 1.6 3.2 0.00 0.00 0.00 63 1006.6
20260504043531 12 223 0.0 3.2 0.00 0.00 0.00 65 1006.7
20260504043028 12 152 0.0 3.2 0.00 0.00 0.00 64 1006.7
20260504042524 13 178 0.0 1.6 0.00 0.00 0.00 63 1006.7
20260504042021 13 117 0.0 1.6 0.00 0.00 0.00 63 1006.8
20260504041539 13 124 1.6 3.2 0.00 0.00 0.00 62 1006.9
20260504041035 13 46 0.0 4.8 0.00 0.00 0.00 60 1007.0
20260504040528 13 193 1.6 4.8 0.00 0.00 0.00 60 1006.9
20260504040028 14 201 1.6 4.8 0.00 0.00 0.00 59 1006.9
20260504035544 15 206 3.2 4.8 0.00 0.00 0.00 57 1007.0
20260504035022 15 46 0.0 1.6 0.00 0.00 0.00 55 1006.9
20260504034522 15 1 0.0 3.2 0.00 0.00 0.00 52 1006.9
20260504034038 15 1 1.6 4.8 0.00 0.00 0.00 54 1006.9
20260504033513 15 46 3.2 4.8 0.00 0.00 0.00 54 1007.0
20260504033035 15 46 1.6 3.2 0.00 0.00 0.00 53 1007.1
20260504032602 16 46 1.6 3.2 0.00 0.00 0.00 50 1007.0
20260504032034 16 46 0.0 3.2 0.00 0.00 0.00 50 1007.1
20260504031532 16 46 0.0 1.6 0.00 0.00 0.00 49 1007.1
20260504031028 16 89 0.0 3.2 0.00 0.00 0.00 49 1007.1
20260504030526 16 46 1.6 3.2 0.00 0.00 0.00 49 1007.1
20260504030023 16 117 1.6 3.2 0.00 0.00 0.00 48 1007.1
20260504025520 16 269 1.6 3.2 0.00 0.00 0.00 48 1007.3
20260504025014 16 145 0.0 3.2 0.00 0.00 0.00 47 1007.2
20260504024518 16 63 0.0 3.2 0.00 0.00 0.00 47 1007.2
20260504024059 17 63 0.0 3.2 0.00 0.00 0.00 46 1007.3
20260504023558 17 63 1.6 3.2 0.00 0.00 0.00 46 1007.3
20260504023035 17 46 0.0 1.6 0.00 0.00 0.00 46 1007.4
20260504022530 17 46 1.6 3.2 0.00 0.00 0.00 45 1007.3
20260504022027 17 105 1.6 3.2 0.00 0.00 0.00 45 1007.4
20260504021520 17 124 1.6 1.6 0.00 0.00 0.00 44 1007.4
20260504021040 17 124 1.6 3.2 0.00 0.00 0.00 43 1007.4
20260504020534 17 105 1.6 3.2 0.00 0.00 0.00 42 1007.4
20260504020030 18 135 0.0 3.2 0.00 0.00 0.00 41 1007.5
20260504015524 18 135 1.6 3.2 0.00 0.00 0.00 41 1007.6
20260504015038 18 135 0.0 3.2 0.00 0.00 0.00 40 1007.7
20260504014534 19 72 1.6 1.6 0.00 0.00 0.00 39 1007.7
20260504014050 19 89 1.6 1.6 0.00 0.00 0.00 38 1007.7
20260504013524 20 72 0.0 1.6 0.00 0.00 0.00 37 1007.8
20260504013023 20 28 0.0 3.2 0.00 0.00 0.00 36 1007.8
20260504012521 20 89 0.0 3.2 0.00 0.00 0.00 36 1007.8
20260504012040 20 165 1.6 3.2 0.00 0.00 0.00 35 1007.9
20260504011537 20 135 1.6 3.2 0.00 0.00 0.00 35 1007.9
20260504011029 21 206 1.6 3.2 0.00 0.00 0.00 35 1007.9
20260504010521 21 178 1.6 4.8 0.00 0.00 0.00 35 1008.0
20260504010038 21 152 3.2 6.4 0.00 0.00 0.00 34 1008.0
20260504005534 21 178 3.2 6.4 0.00 0.00 0.00 34 1008.1
20260504005030 22 159 3.2 8.0 0.00 0.00 0.00 34 1008.1
20260504004527 22 165 3.2 8.0 0.00 0.00 0.00 34 1008.1
20260504004023 22 178 3.2 8.0 0.00 0.00 0.00 33 1008.2
20260504003518 22 188 3.2 11.3 0.00 0.00 0.00 33 1008.1
20260504003041 22 178 4.8 11.3 0.00 0.00 0.00 32 1008.2
20260504002514 22 169 4.8 9.7 0.00 0.00 0.00 31 1008.2
20260504002033 23 191 4.8 9.7 0.00 0.00 0.00 30 1008.3
20260504001529 23 206 4.8 9.7 0.00 0.00 0.00 30 1008.4
20260504001023 23 206 3.2 6.4 0.00 0.00 0.00 29 1008.4
20260504000521 23 209 3.2 9.7 0.00 0.00 0.00 29 1008.5
20260504000038 23 206 3.2 9.7 0.00 0.00 0.00 29 1008.5
20260503235534 23 216 4.8 8.0 0.00 0.00 0.00 29 1008.5
20260503235031 24 178 3.2 8.0 0.00 0.00 0.00 29 1008.6
20260503234529 24 178 1.6 9.7 0.00 0.00 0.00 30 1008.6
20260503234024 24 290 4.8 9.7 0.00 0.00 0.00 28 1008.7
20260503233523 23 300 3.2 9.7 0.00 0.00 0.00 29 1008.7
20260503233018 23 269 3.2 9.7 0.00 0.00 0.00 30 1008.7
20260503232538 23 1 4.8 9.7 0.00 0.00 0.00 29 1008.8
20260503232033 24 338 4.8 8.0 0.00 0.00 0.00 28 1008.8
20260503231529 24 349 3.2 8.0 0.00 0.00 0.00 28 1008.9
20260503231025 24 306 3.2 11.3 0.00 0.00 0.00 27 1008.9
20260503230519 24 318 6.4 12.9 0.00 0.00 0.00 27 1008.9
20260503230038 24 344 6.4 16.1 0.00 0.00 0.00 28 1008.9
20260503225555 24 347 3.2 16.1 0.00 0.00 0.00 27 1008.9
20260503225030 23 301 6.4 12.9 0.00 0.00 0.00 30 1008.9
20260503224526 23 290 3.2 14.5 0.00 0.00 0.00 29 1008.9
20260503224018 23 1 6.4 14.5 0.00 0.00 0.00 30 1008.9
20260503223515 24 351 8.0 12.9 0.00 0.00 0.00 30 1008.9
20260503223045 24 331 4.8 11.3 0.00 0.00 0.00 30 1009.0
20260503222522 24 28 3.2 11.3 0.00 0.00 0.00 29 1009.0
20260503222038 25 171 6.4 11.3 0.00 0.00 0.00 28 1009.0
20260503221537 24 201 4.8 11.3 0.00 0.00 0.00 27 1009.0
20260503221032 23 223 3.2 6.4 0.00 0.00 0.00 29 1009.2
20260503220530 23 347 1.6 12.9 0.00 0.00 0.00 29 1009.1
20260503220022 23 1 6.4 12.9 0.00 0.00 0.00 29 1009.4
20260503215515 23 152 3.2 14.5 0.00 0.00 0.00 29 1009.3
20260503215059 23 341 8.0 14.5 0.00 0.00 0.00 30 1009.4
20260503214553 23 82 6.4 16.1 0.00 0.00 0.00 30 1009.4
20260503214026 23 296 6.4 19.3 0.00 0.00 0.00 30 1009.5
20260503213544 24 39 6.4 17.7 0.00 0.00 0.00 29 1009.5
20260503213021 24 146 3.2 12.9 0.00 0.00 0.00 29 1009.5
20260503212537 24 140 4.8 17.7 0.00 0.00 0.00 28 1009.7
20260503212029 25 128 8.0 17.7 0.00 0.00 0.00 27 1009.7
20260503211534 25 311 4.8 12.9 0.00 0.00 0.00 28 1009.8
20260503211034 24 281 4.8 11.3 0.00 0.00 0.00 29 1009.9
20260503210531 23 276 4.8 14.5 0.00 0.00 0.00 31 1010.1
20260503210049 23 1 8.0 17.7 0.00 0.00 0.00 30 1010.1
20260503205524 23 331 9.7 17.7 0.00 0.00 0.00 29 1010.2